Retour au catalogue

COSMOS 571

ActifMilitaireLEO
NORAD 6682·PAYLOAD·🇷🇺 Russia

Lancé Jun 8, 1973 depuis Plesetsk Cosmodrome

Loading…

Prochains Passages (prochaines 24 heures)

TLE

FraisSource: Space-Track

Époque: Sep 14, 2026, 09:27 UTC

1 06682U 73037H   26257.39430652  .00000003  00000-0  10388-3 0  9992
2 06682  74.0183 138.9837 0103396 247.6978 227.2995 12.65927432461582

Suivez COSMOS 571 en temps réel avec AllMySat

Download on the App Store